User: anonymous   Login
Location: Unspecified
(0.0000°N, 0.0000°E)
Time: 05:05:32
(UTC+00:00)
Language:

Orbcomm D8 (FM36) - Orbit

View from above orbital plane
View from above orbital plane
View from above satellite
View from above satellite

Ground track
Ground track

The orbit is defined by the following mean orbital elements,

1 25984U          26150.68504807 +.00000000 +00000-0 +42091-3 0 00002
2 25984  45.0386 242.6735 0005064 238.9729 121.0623 14.39163857    02
Epoch (UTC): 30 May 2026 16:26:28
Eccentricity: 0.0005064
inclination: 45.0386°
perigee height: 758 km
apogee height: 765 km
right ascension of ascending node: 242.6735°
argument of perigee: 238.9729°
revolutions per day: 14.39163857
mean anomaly at epoch: 121.0623°

The dashed part of the orbit path shows where the satellite is in the earth's shadow,  

DLR